Weather History for Fremont, NE

Change the Weather History Date:

Wednesday, May 7, 2014

  Actual Average Record
Temperature  
Mean Temperature 76 °F -  
Max Temperature 94 °F 72 °F 94 °F (1962)
Min Temperature 57 °F 48 °F 32 °F (1989)
Cooling Degree Days 10    
Growing Degree Days 26 (Base 50)    
Moisture  
Dew Point 53 °F    
Average Humidity 53    
Maximum Humidity 94    
Minimum Humidity 12    
Precipitation  
Precipitation 0.86 in - - ()
Sea Level Pressure  
Sea Level Pressure 29.52 in    
Wind  
Wind Speed 9 mph (SE)    
Max Wind Speed 18 mph    
Max Gust Speed 68 mph    
Visibility 10 miles    
Events Rain , Thunderstorm    
Averages and records for this station are not official NWS values.
T = Trace of Precipitation, MM = Missing Value Source: NWS Daily Summary

Daily Weather History Graph

Daily Weather History Graph

Search for Another Location

Airport:

Trip Planner

Search our weather history database for the weather conditions in past years. The results will help you decide how hot, cold, wet, or windy it might be!

Date:

Astronomy

May. 07, 2014 Rise Set
Actual Time 6:15 AM CDT 8:30 PM CDT
Civil Twilight 5:44 AM CDT 9:01 PM CDT
Nautical Twilight 5:07 AM CDT 9:39 PM CDT
Astronomical Twilight 4:25 AM CDT 10:20 PM CDT
Moon 1:31 PM CDT (5/7) 2:20 AM CDT (5/7)
Length of Visible Light 15h 16m
Length of Day
14h 14m
First Quarter, 55% of the Moon is Illuminated
May 7
First Quarter
May 14
Full
May 21
Last Quarter
May 28
New
Jun 5
First Quarter

Hourly Weather History & Observations

Time (CDT) Temp. Heat Index Dew Point Humidity Pressure Visibility Wind Dir Wind Speed Gust Speed Precip Events Conditions
12:15 AM 67.6 °F - 54.9 °F 64% 29.53 in 10.0 mi East 11.5 mph - N/A   Clear
12:35 AM 67.5 °F - 55.0 °F 64% 29.52 in 10.0 mi East 10.4 mph - N/A   Clear
12:55 AM 67.1 °F - 55.0 °F 65% 29.52 in 10.0 mi East 9.2 mph - N/A   Clear
1:15 AM 67.1 °F - 55.4 °F 66% 29.51 in 10.0 mi East 9.2 mph - N/A   Clear
1:35 AM 66.2 °F - 55.4 °F 68% 29.50 in 10.0 mi East 8.1 mph - N/A   Clear
1:55 AM 66.2 °F - 55.8 °F 69% 29.50 in 10.0 mi East 9.2 mph - N/A   Clear
2:15 AM 65.8 °F - 55.9 °F 70% 29.50 in 10.0 mi East 8.1 mph - N/A   Clear
2:35 AM 64.9 °F - 55.9 °F 73% 29.50 in 10.0 mi ENE 5.8 mph - N/A   Clear
3:15 AM 64.6 °F - 56.3 °F 74% 29.50 in 10.0 mi East 4.6 mph - N/A   Clear
3:35 AM 63.5 °F - 56.5 °F 78% 29.49 in 10.0 mi East 4.6 mph - N/A   Clear
3:55 AM 63.9 °F - 57.2 °F 79% 29.50 in 10.0 mi East 5.8 mph - N/A   Clear
4:15 AM 63.5 °F - 57.2 °F 80% 29.49 in 10.0 mi East 4.6 mph - N/A   Clear
4:35 AM 63.5 °F - 57.9 °F 82% 29.49 in 10.0 mi East 5.8 mph - N/A   Clear
4:55 AM 63.5 °F - 58.1 °F 83% 29.49 in 10.0 mi East 3.5 mph - N/A   Clear
5:15 AM 63.0 °F - 58.6 °F 86% 29.49 in 10.0 mi East 5.8 mph - N/A   Clear
5:35 AM 63.0 °F - 59.0 °F 87% 29.49 in 10.0 mi East 5.8 mph - N/A   Clear
5:55 AM 63.0 °F - 59.4 °F 88% 29.50 in 10.0 mi East 4.6 mph - N/A   Clear
6:15 AM 62.4 °F - 59.2 °F 89% 29.50 in 10.0 mi East 4.6 mph - N/A   Clear
6:35 AM 62.2 °F - 59.2 °F 90% 29.51 in 10.0 mi East 4.6 mph - N/A   Clear
6:55 AM 63.5 °F - 60.3 °F 89% 29.51 in 10.0 mi East 4.6 mph - N/A   Clear
7:15 AM 64.8 °F - 61.0 °F 88% 29.51 in 10.0 mi East 4.6 mph - N/A   Clear
7:35 AM 66.6 °F - 61.7 °F 84% 29.52 in 10.0 mi East 4.6 mph - N/A   Clear
7:55 AM 67.5 °F - 61.7 °F 82% 29.54 in 7.0 mi Calm Calm - N/A   Clear
8:15 AM 69.4 °F - 62.2 °F 78% 29.54 in 10.0 mi ENE 4.6 mph - N/A   Clear
8:35 AM 71.1 °F - 62.4 °F 74% 29.54 in 10.0 mi Calm Calm - N/A   Clear
8:55 AM 71.6 °F - 61.9 °F 71% 29.55 in 10.0 mi Calm Calm - N/A   Clear
9:15 AM 72.9 °F - 62.2 °F 69% 29.55 in 10.0 mi Calm Calm - N/A   Clear
9:55 AM 75.2 °F - 61.9 °F 63% 29.54 in 10.0 mi SSE 6.9 mph - N/A   Clear
10:15 AM 76.1 °F - 61.3 °F 60% 29.54 in 10.0 mi SSE 3.5 mph - N/A   Clear
10:35 AM 76.8 °F - 60.8 °F 58% 29.54 in 10.0 mi SSE 4.6 mph - N/A   Clear
10:55 AM 77.2 °F - 60.8 °F 57% 29.55 in 10.0 mi SW 5.8 mph - N/A   Clear
11:15 AM 79.2 °F - 60.8 °F 53% 29.55 in 10.0 mi South 4.6 mph - N/A   Clear
11:35 AM 79.7 °F - 59.9 °F 51% 29.54 in 10.0 mi SSW 4.6 mph - N/A   Clear
11:55 AM 81.7 °F 81.8 °F 58.6 °F 45% 29.53 in 10.0 mi South 10.4 mph - N/A   Clear
12:15 PM 82.4 °F 82.2 °F 57.7 °F 43% 29.53 in 10.0 mi SSE 10.4 mph - N/A   Clear
12:35 PM 83.7 °F 83.0 °F 57.0 °F 40% 29.53 in 10.0 mi SSE 13.8 mph 18.4 mph N/A   Clear
12:55 PM 84.9 °F 83.9 °F 56.7 °F 38% 29.52 in 10.0 mi South 12.7 mph 19.6 mph N/A   Clear
1:15 PM 86.2 °F 84.9 °F 56.3 °F 36% 29.52 in 10.0 mi SSE 16.1 mph 20.7 mph N/A   Clear
1:35 PM 86.2 °F 84.7 °F 55.6 °F 35% 29.52 in 10.0 mi South 12.7 mph 23.0 mph N/A   Clear
1:55 PM 87.4 °F 85.7 °F 55.4 °F 33% 29.51 in 10.0 mi South 10.4 mph - N/A   Clear
2:15 PM 88.2 °F 85.9 °F 53.1 °F 30% 29.51 in 10.0 mi South 15.0 mph 24.2 mph N/A   Clear
2:35 PM 89.4 °F - 52.9 °F 29% 29.50 in 10.0 mi South 15.0 mph 23.0 mph N/A   Clear
2:55 PM 89.8 °F - 51.3 °F 27% 29.50 in 10.0 mi South 10.4 mph 21.9 mph N/A   Clear
3:15 PM 90.9 °F - 49.5 °F 24% 29.50 in 10.0 mi South 16.1 mph 21.9 mph N/A   Clear
3:35 PM 91.8 °F - 47.1 °F 21% 29.49 in 10.0 mi SSW 16.1 mph 24.2 mph N/A   Clear
3:55 PM 92.5 °F - 46.9 °F 21% 29.48 in 10.0 mi SSW 10.4 mph - N/A   Clear
4:15 PM 92.1 °F - 44.2 °F 19% 29.48 in 10.0 mi SSW 13.8 mph 23.0 mph N/A   Clear
4:35 PM 93.7 °F - 40.6 °F 16% 29.48 in 10.0 mi SSW 17.3 mph 27.6 mph N/A   Clear
4:55 PM 94.1 °F - 40.1 °F 15% 29.47 in 10.0 mi South 18.4 mph 26.5 mph N/A   Clear
5:15 PM 93.9 °F - 39.6 °F 15% 29.47 in 10.0 mi SW 16.1 mph 20.7 mph N/A   Clear
5:35 PM 94.1 °F - 35.6 °F 13% 29.47 in 10.0 mi SW 18.4 mph 26.5 mph N/A   Clear
5:55 PM 93.2 °F - 35.4 °F 13% 29.48 in 10.0 mi SSW 13.8 mph 19.6 mph N/A   Clear
6:15 PM 93.0 °F - 34.0 °F 12% 29.48 in 10.0 mi SW 16.1 mph - N/A   Clear
6:35 PM 92.3 °F - 33.4 °F 12% 29.48 in 10.0 mi WSW 11.5 mph - N/A   Clear
6:55 PM 91.4 °F - 32.9 °F 13% 29.48 in 10.0 mi SW 13.8 mph - N/A   Clear
7:15 PM 90.1 °F - 33.1 °F 13% 29.48 in 10.0 mi WSW 11.5 mph 18.4 mph N/A   Clear
7:35 PM 86.7 °F - 40.8 °F 20% 29.48 in 10.0 mi West 8.1 mph - N/A   Clear
7:55 PM 83.3 °F - 46.8 °F 28% 29.49 in 10.0 mi WNW 9.2 mph - N/A   Clear
8:15 PM 79.7 °F - 52.2 °F 38% 29.49 in 10.0 mi NNW 11.5 mph 20.7 mph N/A   Clear
8:35 PM 77.4 °F - 52.7 °F 42% 29.50 in 10.0 mi North 9.2 mph - N/A Thunderstorm Clear
8:55 PM 76.6 °F - 52.9 °F 43% 29.52 in 10.0 mi North 8.1 mph - N/A Thunderstorm Clear
9:15 PM 76.3 °F - 53.2 °F 45% 29.58 in 10.0 mi East 4.6 mph 18.4 mph N/A Thunderstorm Thunderstorm
9:35 PM 75.4 °F - 52.7 °F 45% 29.57 in 10.0 mi East 3.5 mph - N/A Thunderstorm Clear
9:55 PM 76.1 °F - 48.0 °F 37% 29.60 in 10.0 mi ESE 6.9 mph - N/A Thunderstorm Clear
10:15 PM 71.8 °F - 53.6 °F 53% 29.61 in 10.0 mi SW 8.1 mph - 0.01 in Rain , Thunderstorm Rain
10:35 PM 67.1 °F - 59.0 °F 75% 29.61 in 10.0 mi West 10.4 mph - 0.06 in Rain , Thunderstorm Heavy Thunderstorms and Rain
10:55 PM 57.2 °F - 54.1 °F 89% 29.62 in 0.5 mi North 16.1 mph 67.9 mph 0.83 in Rain , Thunderstorm Heavy Thunderstorms and Rain
11:15 PM 60.3 °F - 54.7 °F 82% 29.61 in 10.0 mi NNW 11.5 mph - 0.01 in Rain , Thunderstorm Light Thunderstorms and Rain
11:55 PM 59.9 °F - 58.3 °F 94% 29.60 in 7.0 mi WNW 6.9 mph - 0.03 in Rain , Thunderstorm Thunderstorms and Rain